Location: ?????????
(55.6553°N, 38.9075°E)
Time: 14:00:47
(UTC+00:00)

Cosmos 921 Rocket - Pass Details

Date: 18 October 2019
Orbit: 572 x 631 km, 75.8° (Epoch: 11 November)

Event Time Altitude Azimuth Distance (km) Brightness Sun altitude
Exits shadow 01:28:54 46° 188° (S) 796 3.4 -21.9°
Drops below altitude 10° 01:32:01 10° 168° (SSE) 1,908 5.5 -21.4°
Sets 01:34:13 0° 166° (SSE) 2,796 6.4 -21.2°
